Location: G�yn�k
(36.6721°N, 30.5542°E)
Time: 05:02:53
(UTC+00:00)

Cosmos 1633 - Pass Details

Date: 07 June 2020
Orbit: 464 x 481 km, 82.5° (Epoch: 05 July)

Event Time Altitude Azimuth Distance (km) Brightness Sun altitude
Exits shadow 01:35:39 - 176° (S) 2,101 5.4 -11.3°
Reaches altitude 10° 01:36:46 10° 174° (S) 1,635 4.9 -11.1°
Maximum altitude 01:40:17 59° 95° (E) 555 3.1 -10.6°
Drops below altitude 10° 01:43:51 10° 15° (NNE) 1,657 6.1 -10.0°
Sets 01:45:59 0° 11° (NNE) 2,543 7.1 -9.7°
